Location: Daerah Kuala Lumpur
(3.1167°N, 101.6833°E)
Time: 09:59:10
(UTC+00:00)

Cosmos 1371 Rocket - Pass Details

Date: 05 August 2024
Orbit: 752 x 786 km, 74.0° (Epoch: 14 September)

Event Time Altitude Azimuth Distance (km) Brightness Sun altitude
Rises 12:43:16 0° 189° (S) 3,271 7.2 -19.1°
Reaches altitude 10° 12:45:40 10° 188° (S) 2,342 6.4 -19.7°
Maximum altitude 12:51:00 77° 102° (ESE) 807 3.9 -20.9°
Drops below altitude 10° 12:56:18 10° 17° (NNE) 2,330 6.5 -22.2°
Sets 12:58:40 0° 15° (NNE) 3,253 7.3 -22.7°
